Regional Weather Roundup
Issued by NWS Wilmington, NC

Home | Current Version | Previous Version | Text Only | Print | Product List | Glossary On
Versions: 1 2 3 4 5 6 7 8 9 10 11 12 13 14 15 16 17 18 19 20 21 22 23 24 25 26 27 28 29 30 31 32 33 34 35 36 37 38 39 40 41 42 43 44 45 46 47 48 49
000
ASUS42 KILM 012110
RWRILM
RWRILM
REGIONAL HOURLY WEATHER ROUNDUP
NATIONAL WEATHER SERVICE WILMINGTON NC
500 PM EDT WED OCT 01 2014

NOTE: "FAIR" INDICATES FEW OR NO CLOUDS BELOW 12,000 FEET WITH NO
SIGNIFICANT WEATHER AND/OR OBSTRUCTIONS TO VISIBILITY.

...............WFO WILMINGTON COUNTY WARNING AREA...............

......COASTAL NC AND SC COUNTIES......

CITY           SKY/WX    TMP DP  RH WIND       PRES   REMARKS
WILMINGTON     MOSUNNY   79  66  64 E6        29.96S
SOUTHPORT      SUNNY     76  63  62 SE7       29.97S
N MYRTLE BEACH SUNNY     78  66  66 S7        29.96F
MYRTLE BEACH   MOSUNNY   79  64  61 S8        29.97S

......INLAND NC AND SC COUNTIES.......

CITY           SKY/WX    TMP DP  RH WIND       PRES   REMARKS
LUMBERTON      MOSUNNY   82  62  50 CALM      29.96S
ELIZABETHTOWN  SUNNY     81  63  54 CALM      29.96F
WHITEVILLE     SUNNY     81  64  57 CALM      29.96S
FLORENCE       MOSUNNY   82  62  50 E7        29.96S
DARLINGTON     PTSUNNY   82  63  51 E5        29.97S

....................REST OF NORTH CAROLINA......................

.........EASTERN NC.........

CITY           SKY/WX    TMP DP  RH WIND       PRES   REMARKS
CAPE HATTERAS  SUNNY     72  64  76 NE8G20    29.96S
JACKSONVILLE   MOSUNNY   81  63  54 N6        29.97R
MOREHEAD CITY  SUNNY     79  64  60 N8        29.96R
KENANSVILLE    PTSUNNY   79  62  56 N6        29.98S
NEW BERN       MOSUNNY   80  63  55 N3        29.98R
ELIZABETH CITY SUNNY     75  63  66 NE10      29.97S

.........CENTRAL NC.........

CITY           SKY/WX    TMP DP  RH WIND       PRES   REMARKS
RALEIGH DURHAM PTSUNNY   78  62  57 NW3       30.00S
ROCKY MOUNT    PTSUNNY   80  63  55 NE6       29.99S
ROANOKE RAPIDS NOT AVBL
FAYETTEVILLE   MOSUNNY   80  65  59 NE7       29.97S
HOFFMAN        MOSUNNY   84  63  48 E7        29.99S

.........WESTERN NC.........

CITY           SKY/WX    TMP DP  RH WIND       PRES   REMARKS
CHARLOTTE      PTSUNNY   82  56  40 W3        29.98S
GREENSBORO     PTSUNNY   76  63  64 E7        29.99F
HICKORY        NOT AVBL
BOONE          NOT AVBL
ASHEVILLE      NOT AVBL

.....................REST OF SOUTH CAROLINA.....................

.........EASTERN SC.........

CITY           SKY/WX    TMP DP  RH WIND       PRES   REMARKS
CHARLESTON     MOSUNNY   81  67  62 S10       29.97S
BEAUFORT MCAS  MOSUNNY   83  66  56 SE3       29.96F
HILTON HEAD    NOT AVBL

.........CENTRAL SC.........

CITY           SKY/WX    TMP DP  RH WIND       PRES   REMARKS
COLUMBIA       MOSUNNY   87  54  32 CALM      29.95S
ORANGEBURG     PTSUNNY   84  60  44 S5        29.96F
SUMTER SHAW    SUNNY     85  61  44 VRB3      29.95S

.........WESTERN SC.........

CITY           SKY/WX    TMP DP  RH WIND       PRES   REMARKS
GREENVILLE     NOT AVBL
ROCK HILL      PTSUNNY   82  59  45 E3        29.98S
ANDERSON       MOSUNNY   84  57  39 S5        29.97F
CLEMSON        NOT AVBL
GREENWOOD      MOSUNNY   84  57  39 CALM      29.98F


...................COASTAL AND OFFSHORE REPORTS..................

................LOCAL PIERS AND NC RESERVE................


STATION/POSITION TIME  SKY/WX   TEMP    WIND        PRES    VSBY
                                AIR SEA DIR/SP/G
                 (UTC)          (F)     (DEG/KT/KT) (MB)    (MI)
JOHNY MRCER PIER 2100            77 78  130/  6/  7 1014.2S
NC RESRV MASNBRO 2000            79     100/  3     1014.0S
OCEAN CREST PIER 2000            76 77  110/  8/  9 1013.9S
SPRINGMAID  PIER 2100            77 76  160/  6/  7 1014.9R


................COASTAL AND OFFSHORE BUOYS................


STATION/POSITION TIME  SKY/WX   TEMP    WIND        PRES    VSBY
                                AIR SEA DIR/SP/G
                 (UTC)          (F)     (DEG/KT/KT) (MB)    (MI)
DIMNDSHOAL 41025 2100            72     360/ 17/ 19 1014.2R
WVE H/P(F/S)=  3/ 7 WND WVE H/P(F/S)=  2/ 6 SWL H/P/D(F/S/D)=  2/ 50/ 7

CAPE LOOKOUT     2000            75      50/  8/  9 1014.4F
ONSLOW BAY 41036 2000            75 80   30/  8/  8 1014.1F
5 WRITEBCH 41038 2000            71 76  110/  6/  8   N/A
MASONBORO  41110 2000               76                N/A
WVE H/P(F/S)=  2/13 WND WVE H/P(F/S)=  2/ 6

WILM HARBR 41108 2000               76                N/A
WVE H/P(F/S)=  2/ 5 WND WVE H/P(F/S)=  2/ 5

27WRITEBCH 41037 2000            72 80   30/  8/  8 1014.6F
FRYING PAN 41013 NOT AVBL
SUNST NRSH 41024 2000            77     180/  6/  8 1014.7S
CAPRS NRSH 41029 2000            77     110/  8/  8   N/A
EDISTO     41004 2100            77 81   30/  8/ 12 1014.5F
WVE H/P(F/S)=  2/ 7 WND WVE H/P(F/S)=  2/ 4 SWL H/P/D(F/S/D)=  2/ 7



..........OFFSHORE BUOYS BEYOND 100 NM OFFSHORE...........
.....IN A TRIANGLE---HAT TO BERMUDA TO BAHAMAS TO HAT.....


STATION/POSITION TIME  SKY/WX   TEMP    WIND        PRES    VSBY
                                AIR SEA DIR/SP/G
                 (UTC)          (F)     (DEG/KT/KT) (MB)    (MI)
150E HAT   41001 NOT AVBL
W BERMUDA  41048 2004            79 81   50/  8/ 10 1009.7R
WVE H/P(F/S)=  4/ 6 WND WVE H/P(F/S)=  2/ 4 SWL H/P/D(F/S/D)=  3/190/ 6

ATLANTIC S 41049 2032            82 84  220/ 16/ 19 1013.0F
WVE H/P(F/S)=  5/ 7 WND WVE H/P(F/S)=  5/ 7 SWL H/P/D(F/S/D)=  2/ 40/11

E BAHAMAS  41046 2018            84 84  210/ 12/ 14 1014.8R
WVE H/P(F/S)=  3/ 5 WND WVE H/P(F/S)=  3/ 5 SWL H/P/D(F/S/D)=  2/110/ 6

NE BAHAMAS 41047 1951            82 83  260/ 14/ 17 1011.7
WVE H/P(F/S)=  6/ 7 WND WVE H/P(F/S)=  5/ 7 SWL H/P/D(F/S/D)=  3/ 50/13

120E CANVRL41010 2100            80 85   30/  2/  4 1012.8F
WVE H/P(F/S)=  3/ 7 SWL H/P/D(F/S/D)=  3/ 10/ 7


END



USA.gov is the U.S. government's official web portal to all federal, state and local government web resources and services.